TimeMDT,TemperatureF,Dew PointF,Humidity,Sea Level PressureIn,VisibilityMPH,Wind Direction,Wind SpeedMPH,Gust SpeedMPH,PrecipitationIn,Events,Conditions,WindDirDegrees,DateUTC
12:17 AM,66.2,53.6,64,30.10,10.0,WSW,3.5,-,N/A,,Clear,240,2013-08-24 06:17:00
12:37 AM,64.4,53.6,68,30.09,10.0,Calm,Calm,-,N/A,,Clear,0,2013-08-24 06:37:00
12:56 AM,62.6,53.6,72,30.10,10.0,Calm,Calm,-,N/A,,Clear,0,2013-08-24 06:56:00
1:16 AM,62.6,53.6,72,30.10,10.0,Calm,Calm,-,N/A,,Clear,0,2013-08-24 07:16:00
1:37 AM,62.6,53.6,72,30.09,10.0,Calm,Calm,-,N/A,,Clear,0,2013-08-24 07:37:00
1:57 AM,62.6,53.6,72,30.10,10.0,Calm,Calm,-,N/A,,Clear,0,2013-08-24 07:57:00
2:17 AM,62.6,53.6,72,30.09,10.0,Calm,Calm,-,N/A,,Clear,0,2013-08-24 08:17:00
2:37 AM,62.6,51.8,68,30.09,10.0,SE,3.5,-,N/A,,Clear,140,2013-08-24 08:37:00
2:57 AM,64.4,51.8,64,30.09,10.0,Calm,Calm,-,N/A,,Clear,0,2013-08-24 08:57:00
3:17 AM,60.8,51.8,72,30.09,10.0,SE,3.5,-,N/A,,Clear,140,2013-08-24 09:17:00
3:37 AM,62.6,51.8,68,30.09,10.0,Calm,Calm,-,N/A,,Clear,0,2013-08-24 09:37:00
3:56 AM,62.6,51.8,68,30.09,10.0,SW,4.6,-,N/A,,Clear,220,2013-08-24 09:56:00
4:17 AM,62.6,51.8,68,30.10,10.0,Calm,Calm,-,N/A,,Clear,0,2013-08-24 10:17:00
4:37 AM,60.8,51.8,72,30.09,10.0,South,3.5,-,N/A,,Clear,180,2013-08-24 10:37:00
4:56 AM,60.8,51.8,72,30.09,10.0,SSW,4.6,-,N/A,,Clear,210,2013-08-24 10:56:00
5:17 AM,62.6,51.8,68,30.09,10.0,SSW,4.6,-,N/A,,Clear,210,2013-08-24 11:17:00
5:37 AM,62.6,51.8,68,30.10,10.0,SW,6.9,-,N/A,,Clear,230,2013-08-24 11:37:00
5:57 AM,62.6,51.8,68,30.10,10.0,SW,6.9,-,N/A,,Clear,220,2013-08-24 11:57:00
6:17 AM,62.6,51.8,68,30.10,10.0,SW,8.1,-,N/A,,Clear,220,2013-08-24 12:17:00
6:37 AM,62.6,51.8,68,30.10,10.0,SW,6.9,-,N/A,,Clear,220,2013-08-24 12:37:00
6:46 AM,62.6,51.8,68,30.11,10.0,SW,5.8,-,N/A,,Clear,230,2013-08-24 12:46:00
7:53 AM,68.0,53.6,60,30.12,30.0,SW,9.2,-,N/A,,Scattered Clouds,230,2013-08-24 13:53:00
8:47 AM,73.4,53.6,50,30.12,30.0,SW,4.6,-,N/A,,Scattered Clouds,230,2013-08-24 14:47:00
9:49 AM,77.0,50.0,39,30.12,30.0,Calm,Calm,-,N/A,,Scattered Clouds,0,2013-08-24 15:49:00
10:47 AM,80.6,50.0,34,30.13,30.0,Calm,Calm,-,N/A,,Scattered Clouds,0,2013-08-24 16:47:00
11:48 AM,84.2,48.2,29,30.14,30.0,North,3.5,-,N/A,,Scattered Clouds,10,2013-08-24 17:48:00
12:48 PM,86.0,48.2,27,30.12,30.0,North,5.8,-,N/A,,Scattered Clouds,360,2013-08-24 18:48:00
1:47 PM,84.2,48.2,29,30.12,30.0,NE,5.8,-,N/A,Rain,Rain,40,2013-08-24 19:47:00
2:10 PM,84.2,46.4,27,30.14,20.0,SSW,8.1,16.1,N/A,Thunderstorm,Thunderstorm,210,2013-08-24 20:10:00
9:17 PM,71.6,59.0,64,30.15,10.0,WSW,10.4,-,N/A,,Clear,250,2013-08-25 03:17:00
9:36 PM,69.8,59.0,68,30.16,10.0,WSW,8.1,-,N/A,,Scattered Clouds,240,2013-08-25 03:36:00
9:57 PM,69.8,57.2,64,30.16,10.0,West,10.4,-,N/A,,Mostly Cloudy,260,2013-08-25 03:57:00
10:17 PM,69.8,55.4,60,30.16,10.0,West,10.4,-,N/A,,Scattered Clouds,260,2013-08-25 04:17:00
10:37 PM,69.8,53.6,56,30.16,10.0,WSW,10.4,-,N/A,,Clear,250,2013-08-25 04:37:00
10:57 PM,68.0,55.4,64,30.17,10.0,SW,9.2,-,N/A,,Clear,230,2013-08-25 04:57:00
11:16 PM,69.8,55.4,60,30.18,10.0,WSW,12.7,-,N/A,,Scattered Clouds,240,2013-08-25 05:16:00
11:37 PM,68.0,55.4,64,30.18,10.0,SW,13.8,-,N/A,,Scattered Clouds,230,2013-08-25 05:37:00
11:57 PM,69.8,55.4,60,30.19,10.0,SW,16.1,-,N/A,Thunderstorm,Thunderstorm,230,2013-08-25 05:57:00